Le nostre stazioni meteo in Italia

Pubblicità
Il mio iltempo24.it
Bramham, Gran Bretagna (99077): Temperatura & dewpoint: 04.04.2020 04:00:00 - 10.04.2020 04:00:00 (BST)Bramham, Gran Bretagna (99077): velocità del vento & gusts: 04.04.2020 04:00:00 - 10.04.2020 04:00:00 (BST)Bramham, Gran Bretagna (99077): direzione del vento: 04.04.2020 04:00:00 - 10.04.2020 04:00:00 (BST)Bramham, Gran Bretagna (99077): precipitazioni: 04.04.2020 04:00:00 - 10.04.2020 04:00:00 (BST)
Data & Tempo tt [°C] td [°C] ff [km/h] ff [kn] fx [km/h] fx [kn] dd rr [mm]
10.04.2020 04:00:00 7,5 6,9 9 5 - - ESE 0,0
10.04.2020 03:00:00 7,3 6,7 8 4 - - ESE 0,0
10.04.2020 02:00:00 7,2 6,5 8 4 - - E 0,0
10.04.2020 01:00:00 7,2 6,5 11 6 - - E 0,0
10.04.2020 00:00:00 7,3 6,6 9 5 - - E 0,0
09.04.2020 23:00:00 7,4 6,5 11 6 - - E 0,0
09.04.2020 22:00:00 7,7 6,4 11 6 - - E 0,0
09.04.2020 21:00:00 8,0 6,5 13 7 - - ENE 0,0
09.04.2020 20:00:00 8,4 6,5 15 8 - - E 0,0
09.04.2020 19:00:00 9,2 6,8 15 8 - - E 0,0
09.04.2020 18:00:00 10,8 7,5 15 8 - - ESE 0,0
09.04.2020 17:00:00 12,8 8,0 21 11 - - E 0,0
09.04.2020 16:00:00 13,2 8,2 21 11 - - ENE 0,0
09.04.2020 15:00:00 13,6 8,3 15 8 - - E 0,0
09.04.2020 14:00:00 12,3 8,1 18 10 - - ENE 0,0
09.04.2020 13:00:00 12,5 8,7 13 7 - - ENE 0,0
09.04.2020 12:00:00 11,1 7,9 9 5 - - N 0,0
09.04.2020 11:00:00 9,8 7,3 11 6 - - NE 0,0
09.04.2020 10:00:00 8,6 7,0 15 8 - - NNE 0,0
09.04.2020 09:00:00 7,8 7,0 13 7 - - N 0,0
09.04.2020 08:00:00 7,0 6,8 18 10 - - NNO 0,0
09.04.2020 07:00:00 6,6 6,5 16 9 - - NO 0,0
09.04.2020 06:00:00 6,2 5,9 16 9 - - NO 0,0
09.04.2020 05:00:00 6,8 5,5 13 7 - - NO 0,0
09.04.2020 04:00:00 6,3 4,7 9 5 - - NO 0,0
09.04.2020 03:00:00 7,4 5,1 2 1 - - SO 0,0
09.04.2020 02:00:00 8,3 5,9 11 6 - - ONO 0,0
09.04.2020 01:00:00 8,9 5,8 8 4 - - ONO 0,0
09.04.2020 00:00:00 9,8 6,1 8 4 - - O 0,0
08.04.2020 23:00:00 9,8 6,2 8 4 - - ONO 0,0
08.04.2020 22:00:00 12,0 6,8 11 6 - - O 0,0
08.04.2020 21:00:00 12,6 7,3 9 5 - - NO 0,0
08.04.2020 20:00:00 14,6 7,7 11 6 - - ONO 0,0
08.04.2020 19:00:00 17,0 8,0 15 8 - - ONO 0,0
08.04.2020 18:00:00 18,1 8,2 13 7 - - ONO 0,0
08.04.2020 17:00:00 18,5 8,4 13 7 - - ONO 0,0
08.04.2020 16:00:00 19,5 6,6 13 7 - - SO 0,0
08.04.2020 15:00:00 19,2 6,6 13 7 - - S 0,0
08.04.2020 14:00:00 18,5 6,6 11 6 - - S 0,0
08.04.2020 13:00:00 17,9 5,5 16 9 - - SSO 0,0
08.04.2020 12:00:00 17,3 5,5 11 6 - - S 0,0
08.04.2020 11:00:00 15,4 5,9 9 5 - - SE 0,0
08.04.2020 10:00:00 14,1 6,8 2 1 - - S 0,0
08.04.2020 09:00:00 9,6 5,5 0 0 - - N 0,0
08.04.2020 08:00:00 6,8 5,2 0 0 - - N 0,0
08.04.2020 07:00:00 4,8 3,5 11 6 - - O 0,0
08.04.2020 06:00:00 4,4 2,9 2 1 - - O 0,0
08.04.2020 05:00:00 5,7 3,9 2 1 - - ONO 0,0
08.04.2020 04:00:00 5,7 3,7 5 3 - - NNO 0,0
08.04.2020 03:00:00 7,2 4,0 8 4 - - SO 0,0
08.04.2020 02:00:00 9,5 4,8 8 4 - - SO 0,0
08.04.2020 01:00:00 8,4 5,0 2 1 - - S 0,0
08.04.2020 00:00:00 7,8 4,2 4 2 - - ESE 0,0
07.04.2020 23:00:00 10,7 4,5 5 3 - - SSO 0,0
07.04.2020 22:00:00 10,9 4,6 5 3 - - S 0,0
07.04.2020 21:00:00 12,0 4,2 4 2 - - S 0,0
07.04.2020 20:00:00 13,8 4,3 8 4 - - S 0,0
07.04.2020 19:00:00 15,8 4,1 16 9 - - S 0,0
07.04.2020 18:00:00 16,5 4,2 21 11 - - S 0,0
07.04.2020 17:00:00 17,1 3,6 21 11 - - S 0,0
07.04.2020 16:00:00 16,9 2,5 22 12 - - SSE 0,0
07.04.2020 15:00:00 17,2 1,9 21 11 - - S 0,0
07.04.2020 14:00:00 16,1 2,9 16 9 - - SSE 0,0
07.04.2020 13:00:00 15,2 4,2 22 12 - - SSE 0,0
07.04.2020 12:00:00 14,1 5,0 21 11 - - SE 0,0
07.04.2020 11:00:00 12,9 4,3 16 9 - - SSE 0,0
07.04.2020 10:00:00 10,2 4,5 11 6 - - SE 0,0
07.04.2020 09:00:00 7,8 4,5 4 2 - - S 0,0
07.04.2020 08:00:00 4,7 3,9 2 1 - - SO 0,0
07.04.2020 07:00:00 1,3 0,6 2 1 - - SSE 0,0
07.04.2020 06:00:00 1,3 -0,1 2 1 - - O 0,0
07.04.2020 05:00:00 2,6 0,9 8 4 - - SSE 0,0
07.04.2020 04:00:00 2,6 -0,5 4 2 - - S 0,0
07.04.2020 03:00:00 3,5 0,7 8 4 - - SSO 0,0
07.04.2020 02:00:00 6,0 1,6 4 2 - - OSO 0,0
07.04.2020 01:00:00 6,7 1,7 9 5 - - SSO 0,0
07.04.2020 00:00:00 4,7 1,6 5 3 - - SSE 0,0
06.04.2020 23:00:00 5,2 1,2 2 1 - - SSO 0,0
06.04.2020 22:00:00 6,0 0,9 5 3 - - SSO 0,0
06.04.2020 21:00:00 7,3 1,5 4 2 - - NE 0,0
06.04.2020 20:00:00 10,2 1,4 13 7 - - OSO 0,0
06.04.2020 19:00:00 11,9 1,7 21 11 - - O 0,0
06.04.2020 18:00:00 13,1 1,9 21 11 - - O 0,0
06.04.2020 17:00:00 14,0 0,4 28 15 - - SO 0,0
06.04.2020 16:00:00 14,3 3,3 24 13 48 26 OSO 0,0
06.04.2020 15:00:00 13,9 4,6 24 13 - - OSO 0,0
06.04.2020 14:00:00 13,8 4,7 21 11 - - OSO 0,0
06.04.2020 13:00:00 12,8 5,5 22 12 - - SO 0,0
06.04.2020 12:00:00 12,7 6,1 18 10 48 26 OSO 0,0
06.04.2020 11:00:00 12,9 5,2 28 15 46 25 SSO 0,0
06.04.2020 10:00:00 12,5 5,9 31 17 50 27 SO 0,0
06.04.2020 09:00:00 11,2 6,7 18 10 - - SO 0,0
06.04.2020 08:00:00 10,5 7,4 11 6 - - SSO 0,0
06.04.2020 07:00:00 10,4 7,5 22 12 - - SO 0,2
06.04.2020 06:00:00 10,6 8,6 22 12 46 25 SSO 1,0
06.04.2020 05:00:00 12,9 8,2 16 9 - - S 0,0
06.04.2020 04:00:00 13,4 7,5 28 15 - - SSE 0,0
06.04.2020 03:00:00 13,6 6,4 28 15 - - SSE 0,0
06.04.2020 02:00:00 12,0 4,8 21 11 - - SE 0,0
06.04.2020 01:00:00 12,2 4,0 22 12 - - SE 0,0
06.04.2020 00:00:00 13,0 3,6 29 16 - - SE 0,0
05.04.2020 23:00:00 13,4 4,2 28 15 - - SE 0,0
05.04.2020 22:00:00 13,7 5,5 26 14 - - SE 0,0
05.04.2020 21:00:00 14,5 4,9 28 15 - - SE 0,0
05.04.2020 20:00:00 16,3 3,5 26 14 - - SE 0,0
05.04.2020 19:00:00 16,6 4,7 21 11 - - SE 0,0
05.04.2020 18:00:00 17,3 4,4 29 16 46 25 SE 0,0
05.04.2020 17:00:00 17,9 3,6 31 17 50 27 SE 0,0
05.04.2020 16:00:00 18,1 3,5 39 21 50 27 SE 0,0
05.04.2020 15:00:00 17,9 4,2 34 18 48 26 SE 0,0
05.04.2020 14:00:00 16,9 3,8 31 17 46 25 SE 0,0
05.04.2020 13:00:00 15,3 4,0 34 18 46 25 SE 0,0
05.04.2020 12:00:00 15,1 4,7 34 18 50 27 SE 0,0
05.04.2020 11:00:00 13,3 5,0 28 15 - - SE 0,0
05.04.2020 10:00:00 10,2 5,2 21 11 - - SE 0,0
05.04.2020 09:00:00 7,2 3,8 13 7 - - ESE 0,0
05.04.2020 08:00:00 5,5 3,4 13 7 - - ESE 0,0
05.04.2020 07:00:00 2,2 1,1 9 5 - - SE 0,0
05.04.2020 06:00:00 3,3 2,4 15 8 - - SE 0,0
05.04.2020 05:00:00 3,3 1,9 15 8 - - SSE 0,0
05.04.2020 04:00:00 3,7 1,8 9 5 - - SSE 0,0
05.04.2020 03:00:00 4,4 2,3 13 7 - - SE 0,0
05.04.2020 02:00:00 5,3 2,4 8 4 - - S 0,0
05.04.2020 01:00:00 6,7 3,6 21 11 - - SE 0,0
05.04.2020 00:00:00 7,2 4,0 16 9 - - SE 0,0
04.04.2020 23:00:00 6,6 4,1 15 8 - - SE 0,0
04.04.2020 22:00:00 7,7 4,8 15 8 - - SE 0,0
04.04.2020 21:00:00 8,0 4,8 11 6 - - SE 0,0
04.04.2020 20:00:00 10,2 5,3 13 7 - - SE 0,0
04.04.2020 19:00:00 12,2 5,4 16 9 - - SSE 0,0
04.04.2020 18:00:00 12,6 5,0 18 10 - - S 0,0
04.04.2020 17:00:00 12,6 4,7 21 11 - - S 0,0
04.04.2020 16:00:00 13,0 3,6 22 12 - - SSO 0,0
04.04.2020 15:00:00 12,5 3,0 18 10 - - SSO 0,0
04.04.2020 14:00:00 12,0 3,4 18 10 - - S 0,0
04.04.2020 13:00:00 10,6 4,3 18 10 - - S 0,0
04.04.2020 12:00:00 10,3 5,2 15 8 - - S 0,0
04.04.2020 11:00:00 8,8 4,4 18 10 - - SSE 0,0
04.04.2020 10:00:00 9,6 4,7 13 7 - - SSO 0,0
04.04.2020 09:00:00 7,9 4,5 11 6 - - S 0,0
04.04.2020 08:00:00 6,8 4,2 11 6 - - S 0,0
04.04.2020 07:00:00 5,0 3,2 13 7 - - SSO 0,0
04.04.2020 06:00:00 5,2 3,4 2 1 - - O 0,0
04.04.2020 05:00:00 5,9 3,5 9 5 - - SSO 0,0
04.04.2020 04:00:00 6,6 3,6 4 2 - - SO 0,0

tt = Temperatura
td = dewpoint
ff = velocità del vento
fx = gusts
dd = direzione del vento
rr = precipitazioni

Stazioni seguenti

WeatherPro
AMSI
MeteoEarth